Location: Unspecified
(0.0000°N, 0.0000°E)
Time: 18:51:01
(UTC+00:00)

Explorer 11/Cluster Stage 4 - Pass Details

Date: 21 November 2019
Orbit: 467 x 1259 km, 28.8° (Epoch: 05 December)

Event Time Altitude Azimuth Distance (km) Brightness Sun altitude
Rises 23:07:47 0° 332° (NNW) 3,771 - -67.9°
Reaches altitude 10° 23:12:15 10° 358° (N) 2,983 - -68.4°
Maximum altitude 23:15:33 13° 25° (NNE) 2,838 - -68.7°
Drops below altitude 10° 23:19:01 10° 51° (NE) 3,157 - -68.9°
Sets 23:24:01 0° 75° (ENE) 4,188 - -69.3°
